Location: Newark
(34.0635°N, 86.7609°W)
Time: 05:35:12
(UTC+00:00)

N. Korean satellite - Pass Details

Date: 17 December 2019
Orbit: 454 x 508 km, 97.2° (Epoch: 20 January)

Event Time Altitude Azimuth Distance (km) Brightness Sun altitude
Rises 11:28:56 0° 12° (NNE) 2,500 10.1 -15.6°
Reaches altitude 10° 11:31:00 10° 14° (NNE) 1,613 9.2 -15.2°
Maximum altitude 11:34:27 77° 101° (E) 473 6.6 -14.5°
Drops below altitude 10° 11:37:50 10° 188° (S) 1,585 9.3 -13.8°
Sets 11:39:51 0° 190° (S) 2,452 10.3 -13.4°
